| time (UTC) | temp F | wind direction | speed MPH | gust MPH | rain 1hr in | rain 24hr in | rain mn in | humidity % | barometer mb |
| 20260508225005 | 78 | 303 | 6.0 | 10.0 | 0.00 | 0.00 | 0.00 | 15 | 1018.6 |
| 20260508224504 | 78 | 293 | 6.0 | 10.0 | 0.00 | 0.00 | 0.00 | 14 | 1018.7 |
| 20260508224004 | 78 | 313 | 5.0 | 12.0 | 0.00 | 0.00 | 0.00 | 15 | 1018.7 |
| 20260508223505 | 78 | 285 | 4.0 | 12.0 | 0.00 | 0.00 | 0.00 | 15 | 1018.8 |
| 20260508222504 | 78 | 285 | 5.0 | 12.0 | 0.00 | 0.00 | 0.00 | 15 | 1018.8 |
| 20260508221505 | 78 | 283 | 4.0 | 9.0 | 0.00 | 0.00 | 0.00 | 14 | 1019.1 |
| 20260508220505 | 78 | 304 | 3.0 | 9.0 | 0.00 | 0.00 | 0.00 | 14 | 1019.1 |
| 20260508220005 | 78 | 316 | 3.0 | 10.0 | 0.00 | 0.00 | 0.00 | 14 | 1019.1 |
| 20260508215505 | 78 | 288 | 7.0 | 13.0 | 0.00 | 0.00 | 0.00 | 13 | 1019.1 |
| 20260508215004 | 78 | 299 | 6.0 | 12.0 | 0.00 | 0.00 | 0.00 | 12 | 1019.3 |
| 20260508214005 | 79 | 289 | 3.0 | 10.0 | 0.00 | 0.00 | 0.00 | 13 | 1019.3 |
| 20260508213505 | 79 | 297 | 5.0 | 9.0 | 0.00 | 0.00 | 0.00 | 12 | 1019.4 |
| 20260508213004 | 79 | 300 | 4.0 | 9.0 | 0.00 | 0.00 | 0.00 | 13 | 1019.4 |
| 20260508211504 | 79 | 306 | 3.0 | 8.0 | 0.00 | 0.00 | 0.00 | 13 | 1019.6 |
| 20260508211005 | 79 | 270 | 5.0 | 9.0 | 0.00 | 0.00 | 0.00 | 12 | 1019.6 |
| 20260508210505 | 79 | 186 | 5.0 | 9.0 | 0.00 | 0.00 | 0.00 | 14 | 1019.6 |
| 20260508210004 | 79 | 246 | 3.0 | 6.0 | 0.00 | 0.00 | 0.00 | 15 | 1019.6 |
| 20260508205505 | 78 | 273 | 3.0 | 8.0 | 0.00 | 0.00 | 0.00 | 14 | 1019.6 |
| 20260508205004 | 78 | 263 | 4.0 | 7.0 | 0.00 | 0.00 | 0.00 | 14 | 1019.6 |
| 20260508204504 | 78 | 301 | 3.0 | 9.0 | 0.00 | 0.00 | 0.00 | 16 | 1019.7 |
| 20260508204005 | 78 | 263 | 4.0 | 8.0 | 0.00 | 0.00 | 0.00 | 14 | 1019.8 |
| 20260508203504 | 77 | 284 | 4.0 | 9.0 | 0.00 | 0.00 | 0.00 | 15 | 1019.7 |
| 20260508203005 | 77 | 289 | 5.0 | 9.0 | 0.00 | 0.00 | 0.00 | 15 | 1019.7 |
| 20260508202505 | 77 | 292 | 4.0 | 9.0 | 0.00 | 0.00 | 0.00 | 15 | 1019.7 |
| 20260508202005 | 77 | 295 | 2.0 | 8.0 | 0.00 | 0.00 | 0.00 | 16 | 1019.8 |
| 20260508201505 | 77 | 254 | 4.0 | 8.0 | 0.00 | 0.00 | 0.00 | 16 | 1019.9 |
| 20260508201005 | 77 | 256 | 3.0 | 7.0 | 0.00 | 0.00 | 0.00 | 16 | 1019.9 |
| 20260508200504 | 77 | 351 | 2.0 | 6.0 | 0.00 | 0.00 | 0.00 | 17 | 1019.9 |
| 20260508200005 | 76 | 311 | 3.0 | 7.0 | 0.00 | 0.00 | 0.00 | 16 | 1019.9 |
| 20260508195504 | 76 | 304 | 1.0 | 9.0 | 0.00 | 0.00 | 0.00 | 17 | 1019.9 |
| 20260508194504 | 76 | 303 | 3.0 | 7.0 | 0.00 | 0.00 | 0.00 | 18 | 1019.9 |
| 20260508194005 | 76 | 269 | 1.0 | 7.0 | 0.00 | 0.00 | 0.00 | 17 | 1020.0 |
| 20260508193505 | 76 | 301 | 1.0 | 6.0 | 0.00 | 0.00 | 0.00 | 17 | 1020.0 |
| 20260508193004 | 76 | 245 | 1.0 | 6.0 | 0.00 | 0.00 | 0.00 | 16 | 1020.0 |
| 20260508192505 | 76 | 277 | 3.0 | 7.0 | 0.00 | 0.00 | 0.00 | 17 | 1020.0 |
| 20260508192005 | 75 | 102 | 3.0 | 6.0 | 0.00 | 0.00 | 0.00 | 18 | 1020.0 |
| 20260508191505 | 74 | 192 | 2.0 | 7.0 | 0.00 | 0.00 | 0.00 | 17 | 1020.1 |
| 20260508191005 | 74 | 274 | 5.0 | 7.0 | 0.00 | 0.00 | 0.00 | 17 | 1020.2 |
| 20260508190504 | 74 | 325 | 2.0 | 5.0 | 0.00 | 0.00 | 0.00 | 17 | 1020.2 |
| 20260508190004 | 74 | 287 | 1.0 | 5.0 | 0.00 | 0.00 | 0.00 | 16 | 1020.2 |
| 20260508185504 | 74 | 301 | 0.0 | 2.0 | 0.00 | 0.00 | 0.00 | 16 | 1020.3 |
| 20260508185004 | 73 | 320 | 1.0 | 5.0 | 0.00 | 0.00 | 0.00 | 16 | 1020.3 |
| 20260508184504 | 73 | 357 | 1.0 | 6.0 | 0.00 | 0.00 | 0.00 | 17 | 1020.3 |
| 20260508184005 | 74 | 342 | 2.0 | 6.0 | 0.00 | 0.00 | 0.00 | 17 | 1020.4 |
| 20260508183505 | 74 | 242 | 1.0 | 5.0 | 0.00 | 0.00 | 0.00 | 17 | 1020.5 |
| 20260508183004 | 74 | 180 | 2.0 | 5.0 | 0.00 | 0.00 | 0.00 | 16 | 1020.5 |
| 20260508182504 | 73 | 158 | 0.0 | 6.0 | 0.00 | 0.00 | 0.00 | 17 | 1020.5 |
| 20260508181505 | 73 | 152 | 1.0 | 7.0 | 0.00 | 0.00 | 0.00 | 16 | 1020.5 |
| 20260508181005 | 72 | 222 | 3.0 | 7.0 | 0.00 | 0.00 | 0.00 | 18 | 1020.6 |
| 20260508180506 | 71 | 172 | 2.0 | 6.0 | 0.00 | 0.00 | 0.00 | 18 | 1020.6 |
| 20260508180004 | 70 | 309 | 2.0 | 5.0 | 0.00 | 0.00 | 0.00 | 17 | 1020.6 |
| 20260508175505 | 71 | 333 | 2.0 | 6.0 | 0.00 | 0.00 | 0.00 | 17 | 1020.8 |
| 20260508175005 | 70 | 112 | 0.0 | 2.0 | 0.00 | 0.00 | 0.00 | 21 | 1020.8 |
| 20260508174505 | 70 | 275 | 0.0 | 0.0 | 0.00 | 0.00 | 0.00 | 20 | 1020.8 |
| 20260508174004 | 69 | 275 | 0.0 | 0.0 | 0.00 | 0.00 | 0.00 | 22 | 1020.8 |
| 20260508173505 | 69 | 288 | 1.0 | 5.0 | 0.00 | 0.00 | 0.00 | 20 | 1020.9 |
| 20260508172505 | 69 | 147 | 1.0 | 5.0 | 0.00 | 0.00 | 0.00 | 20 | 1020.9 |
| 20260508172005 | 69 | 176 | 0.0 | 5.0 | 0.00 | 0.00 | 0.00 | 21 | 1020.9 |
| 20260508171504 | 68 | 185 | 1.0 | 6.0 | 0.00 | 0.00 | 0.00 | 23 | 1020.9 |
| 20260508171005 | 68 | 171 | 0.0 | 0.0 | 0.00 | 0.00 | 0.00 | 24 | 1020.9 |
| 20260508170504 | 68 | 171 | 0.0 | 5.0 | 0.00 | 0.00 | 0.00 | 23 | 1020.9 |
| 20260508170004 | 67 | 194 | 0.0 | 2.0 | 0.00 | 0.00 | 0.00 | 27 | 1020.9 |
| 20260508165504 | 67 | 160 | 1.0 | 3.0 | 0.00 | 0.00 | 0.00 | 27 | 1020.9 |
| 20260508165004 | 66 | 203 | 0.0 | 0.0 | 0.00 | 0.00 | 0.00 | 30 | 1020.9 |
| 20260508164505 | 66 | 203 | 0.0 | 1.0 | 0.00 | 0.00 | 0.00 | 30 | 1020.9 |
| 20260508164004 | 66 | 225 | 1.0 | 5.0 | 0.00 | 0.00 | 0.00 | 31 | 1020.9 |
| 20260508163505 | 66 | 295 | 0.0 | 3.0 | 0.00 | 0.00 | 0.00 | 33 | 1021.0 |
| 20260508163005 | 65 | 296 | 0.0 | 0.0 | 0.00 | 0.00 | 0.00 | 33 | 1021.0 |
| 20260508162504 | 65 | 296 | 0.0 | 1.0 | 0.00 | 0.00 | 0.00 | 33 | 1021.0 |
| 20260508162004 | 65 | 299 | 0.0 | 0.0 | 0.00 | 0.00 | 0.00 | 31 | 1021.0 |
| 20260508161504 | 64 | 299 | 0.0 | 0.0 | 0.00 | 0.00 | 0.00 | 31 | 1021.1 |
| 20260508161004 | 64 | 299 | 0.0 | 0.0 | 0.00 | 0.00 | 0.00 | 32 | 1021.1 |
| 20260508160505 | 64 | 299 | 0.0 | 1.0 | 0.00 | 0.00 | 0.00 | 34 | 1021.1 |
| 20260508160005 | 64 | 286 | 0.0 | 2.0 | 0.00 | 0.00 | 0.00 | 34 | 1021.1 |
| 20260508155505 | 63 | 281 | 0.0 | 0.0 | 0.00 | 0.00 | 0.00 | 33 | 1021.1 |
| 20260508155004 | 63 | 281 | 0.0 | 0.0 | 0.00 | 0.00 | 0.00 | 36 | 1021.1 |
| 20260508154504 | 62 | 281 | 0.0 | 0.0 | 0.00 | 0.00 | 0.00 | 34 | 1021.1 |
| 20260508154005 | 62 | 281 | 0.0 | 0.0 | 0.00 | 0.00 | 0.00 | 35 | 1021.2 |
| 20260508153505 | 61 | 281 | 0.0 | 0.0 | 0.00 | 0.00 | 0.00 | 36 | 1021.2 |
| 20260508153005 | 61 | 281 | 0.0 | 0.0 | 0.00 | 0.00 | 0.00 | 37 | 1021.3 |
| 20260508152504 | 60 | 281 | 0.0 | 0.0 | 0.00 | 0.00 | 0.00 | 36 | 1021.4 |
| 20260508152004 | 60 | 281 | 0.0 | 0.0 | 0.00 | 0.00 | 0.00 | 38 | 1021.4 |
| 20260508151504 | 59 | 281 | 0.0 | 0.0 | 0.00 | 0.00 | 0.00 | 41 | 1021.4 |
| 20260508151004 | 59 | 281 | 0.0 | 0.0 | 0.00 | 0.00 | 0.00 | 42 | 1021.4 |
| 20260508150005 | 58 | 340 | 0.0 | 0.0 | 0.00 | 0.00 | 0.00 | 44 | 1021.3 |
| 20260508145505 | 57 | 340 | 0.0 | 0.0 | 0.00 | 0.00 | 0.00 | 46 | 1021.2 |
| 20260508145005 | 55 | 340 | 0.0 | 0.0 | 0.00 | 0.00 | 0.00 | 47 | 1021.2 |
| 20260508144504 | 54 | 340 | 0.0 | 0.0 | 0.00 | 0.00 | 0.00 | 50 | 1021.3 |
| 20260508144004 | 53 | 340 | 0.0 | 0.0 | 0.00 | 0.00 | 0.00 | 51 | 1021.5 |
| 20260508143505 | 52 | 340 | 0.0 | 3.0 | 0.00 | 0.00 | 0.00 | 56 | 1021.5 |
| 20260508143005 | 51 | 347 | 0.0 | 0.0 | 0.00 | 0.00 | 0.00 | 58 | 1021.6 |
| 20260508142504 | 50 | 347 | 0.0 | 0.0 | 0.00 | 0.00 | 0.00 | 62 | 1021.6 |
| 20260508142005 | 49 | 347 | 1.0 | 6.0 | 0.00 | 0.00 | 0.00 | 66 | 1021.6 |
| 20260508141505 | 48 | 106 | 0.0 | 0.0 | 0.00 | 0.00 | 0.00 | 68 | 1021.5 |
| 20260508141005 | 47 | 106 | 0.0 | 0.0 | 0.00 | 0.00 | 0.00 | 66 | 1021.5 |
| 20260508140505 | 46 | 106 | 0.0 | 0.0 | 0.00 | 0.00 | 0.00 | 70 | 1021.4 |
| 20260508140005 | 45 | 106 | 0.0 | 0.0 | 0.00 | 0.00 | 0.00 | 70 | 1021.4 |
| 20260508135005 | 43 | 106 | 0.0 | 0.0 | 0.00 | 0.00 | 0.00 | 72 | 1021.4 |
| 20260508134004 | 42 | 106 | 0.0 | 0.0 | 0.00 | 0.00 | 0.00 | 74 | 1021.4 |
| 20260508133505 | 41 | 106 | 0.0 | 0.0 | 0.00 | 0.00 | 0.00 | 75 | 1021.2 |
| 20260508133004 | 41 | 106 | 0.0 | 0.0 | 0.00 | 0.00 | 0.00 | 73 | 1021.2 |
| 20260508132505 | 41 | 106 | 0.0 | 0.0 | 0.00 | 0.00 | 0.00 | 74 | 1021.2 |
| 20260508132005 | 41 | 106 | 0.0 | 0.0 | 0.00 | 0.00 | 0.00 | 73 | 1021.1 |
| 20260508131504 | 40 | 106 | 0.0 | 0.0 | 0.00 | 0.00 | 0.00 | 74 | 1021.1 |
| 20260508130504 | 40 | 106 | 0.0 | 0.0 | 0.00 | 0.00 | 0.00 | 75 | 1021.0 |
| 20260508130005 | 41 | 106 | 0.0 | 0.0 | 0.00 | 0.00 | 0.00 | 74 | 1021.0 |
| 20260508125004 | 41 | 106 | 0.0 | 0.0 | 0.00 | 0.00 | 0.00 | 72 | 1021.0 |
| 20260508124504 | 41 | 106 | 0.0 | 0.0 | 0.00 | 0.00 | 0.00 | 72 | 1021.0 |
| 20260508124004 | 41 | 106 | 0.0 | 0.0 | 0.00 | 0.00 | 0.00 | 73 | 1020.9 |
| 20260508123505 | 42 | 106 | 0.0 | 0.0 | 0.00 | 0.00 | 0.00 | 73 | 1020.9 |
| 20260508123005 | 42 | 106 | 0.0 | 0.0 | 0.00 | 0.00 | 0.00 | 74 | 1020.9 |
| 20260508122505 | 42 | 106 | 0.0 | 0.0 | 0.00 | 0.00 | 0.00 | 73 | 1020.8 |
| 20260508122004 | 42 | 106 | 0.0 | 0.0 | 0.00 | 0.00 | 0.00 | 73 | 1020.8 |
| 20260508121505 | 42 | 106 | 0.0 | 0.0 | 0.00 | 0.00 | 0.00 | 74 | 1020.8 |
| 20260508121005 | 42 | 106 | 0.0 | 0.0 | 0.00 | 0.00 | 0.00 | 74 | 1020.7 |
| 20260508120005 | 43 | 106 | 0.0 | 0.0 | 0.00 | 0.00 | 0.00 | 71 | 1020.6 |
| 20260508115505 | 43 | 106 | 0.0 | 0.0 | 0.00 | 0.00 | 0.00 | 69 | 1020.5 |
| 20260508115004 | 42 | 106 | 0.0 | 2.0 | 0.00 | 0.00 | 0.00 | 72 | 1020.5 |
| 20260508114505 | 42 | 125 | 1.0 | 3.0 | 0.00 | 0.00 | 0.00 | 74 | 1020.6 |
| 20260508114005 | 42 | 124 | 0.0 | 0.0 | 0.00 | 0.00 | 0.00 | 74 | 1020.8 |
| 20260508113505 | 43 | 124 | 0.0 | 0.0 | 0.00 | 0.00 | 0.00 | 72 | 1020.6 |
| 20260508113005 | 43 | 124 | 0.0 | 0.0 | 0.00 | 0.00 | 0.00 | 72 | 1020.6 |
| 20260508112504 | 44 | 124 | 0.0 | 0.0 | 0.00 | 0.00 | 0.00 | 71 | 1020.5 |
| 20260508111505 | 44 | 124 | 0.0 | 0.0 | 0.00 | 0.00 | 0.00 | 69 | 1020.5 |
| 20260508111005 | 44 | 124 | 0.0 | 0.0 | 0.00 | 0.00 | 0.00 | 68 | 1020.4 |
| 20260508110504 | 43 | 124 | 0.0 | 0.0 | 0.00 | 0.00 | 0.00 | 69 | 1020.5 |
| 20260508105504 | 43 | 157 | 0.0 | 0.0 | 0.00 | 0.00 | 0.00 | 71 | 1020.5 |
| 20260508104005 | 44 | 157 | 0.0 | 0.0 | 0.00 | 0.00 | 0.00 | 70 | 1020.4 |
| 20260508103504 | 44 | 157 | 0.0 | 0.0 | 0.00 | 0.00 | 0.00 | 69 | 1020.5 |
| 20260508102504 | 44 | 157 | 0.0 | 0.0 | 0.00 | 0.00 | 0.00 | 69 | 1020.4 |
| 20260508102005 | 44 | 157 | 0.0 | 0.0 | 0.00 | 0.00 | 0.00 | 69 | 1020.4 |
| 20260508101504 | 45 | 157 | 0.0 | 0.0 | 0.00 | 0.00 | 0.00 | 68 | 1020.5 |
| 20260508100504 | 46 | 157 | 0.0 | 0.0 | 0.00 | 0.00 | 0.00 | 65 | 1020.4 |
| 20260508100005 | 46 | 157 | 0.0 | 0.0 | 0.00 | 0.00 | 0.00 | 63 | 1020.4 |
| 20260508095504 | 46 | 157 | 0.0 | 0.0 | 0.00 | 0.00 | 0.00 | 62 | 1020.3 |
| 20260508094505 | 45 | 173 | 2.0 | 3.0 | 0.00 | 0.00 | 0.00 | 66 | 1020.3 |
| 20260508094005 | 45 | 104 | 0.0 | 0.0 | 0.00 | 0.00 | 0.00 | 68 | 1020.3 |
| 20260508093504 | 45 | 104 | 0.0 | 0.0 | 0.00 | 0.00 | 0.00 | 67 | 1020.3 |
| 20260508093004 | 46 | 104 | 0.0 | 0.0 | 0.00 | 0.00 | 0.00 | 65 | 1020.3 |
| 20260508092505 | 46 | 104 | 0.0 | 0.0 | 0.00 | 0.00 | 0.00 | 64 | 1020.2 |
| 20260508092005 | 45 | 104 | 0.0 | 0.0 | 0.00 | 0.00 | 0.00 | 64 | 1020.2 |
| 20260508091505 | 45 | 104 | 0.0 | 0.0 | 0.00 | 0.00 | 0.00 | 66 | 1020.2 |
| 20260508091004 | 46 | 104 | 0.0 | 0.0 | 0.00 | 0.00 | 0.00 | 68 | 1020.1 |
| 20260508090505 | 45 | 104 | 0.0 | 0.0 | 0.00 | 0.00 | 0.00 | 69 | 1020.1 |
| 20260508090005 | 46 | 104 | 0.0 | 0.0 | 0.00 | 0.00 | 0.00 | 70 | 1020.2 |
| 20260508085505 | 46 | 104 | 0.0 | 0.0 | 0.00 | 0.00 | 0.00 | 70 | 1020.2 |
| 20260508085005 | 46 | 104 | 0.0 | 0.0 | 0.00 | 0.00 | 0.00 | 70 | 1020.2 |
| 20260508083505 | 47 | 104 | 0.0 | 0.0 | 0.00 | 0.00 | 0.00 | 69 | 1020.2 |
| 20260508083004 | 47 | 104 | 0.0 | 0.0 | 0.00 | 0.00 | 0.00 | 67 | 1020.3 |
| 20260508082504 | 48 | 104 | 0.0 | 0.0 | 0.00 | 0.00 | 0.00 | 67 | 1020.3 |
| 20260508082004 | 48 | 104 | 0.0 | 0.0 | 0.00 | 0.00 | 0.00 | 67 | 1020.3 |
| 20260508081505 | 49 | 104 | 0.0 | 0.0 | 0.00 | 0.00 | 0.00 | 66 | 1020.4 |
| 20260508080504 | 49 | 104 | 0.0 | 1.0 | 0.00 | 0.00 | 0.00 | 64 | 1020.5 |
| 20260508080005 | 50 | 158 | 0.0 | 0.0 | 0.00 | 0.00 | 0.00 | 64 | 1020.5 |
| 20260508075505 | 51 | 158 | 0.0 | 0.0 | 0.00 | 0.00 | 0.00 | 63 | 1020.6 |
| 20260508074505 | 52 | 175 | 3.0 | 3.0 | 0.00 | 0.00 | 0.00 | 62 | 1020.5 |
| 20260508074004 | 52 | 312 | 0.0 | 0.0 | 0.00 | 0.00 | 0.00 | 60 | 1020.5 |
| 20260508073504 | 53 | 312 | 0.0 | 1.0 | 0.00 | 0.00 | 0.00 | 58 | 1020.4 |
| 20260508073005 | 54 | 103 | 0.0 | 1.0 | 0.00 | 0.00 | 0.00 | 55 | 1020.3 |
| 20260508072005 | 55 | 103 | 0.0 | 0.0 | 0.00 | 0.00 | 0.00 | 51 | 1020.3 |
| 20260508071504 | 55 | 103 | 1.0 | 3.0 | 0.00 | 0.00 | 0.00 | 49 | 1020.2 |
| 20260508071005 | 55 | 103 | 1.0 | 2.0 | 0.00 | 0.00 | 0.00 | 47 | 1020.2 |
| 20260508070505 | 55 | 102 | 0.0 | 2.0 | 0.00 | 0.00 | 0.00 | 46 | 1020.0 |
| 20260508065005 | 55 | 171 | 3.0 | 6.0 | 0.00 | 0.00 | 0.00 | 46 | 1019.9 |
| 20260508064004 | 55 | 144 | 0.0 | 0.0 | 0.00 | 0.00 | 0.00 | 46 | 1019.9 |
| 20260508063505 | 54 | 147 | 1.0 | 2.0 | 0.00 | 0.00 | 0.00 | 46 | 1020.0 |
| 20260508063004 | 55 | 138 | 0.0 | 0.0 | 0.00 | 0.00 | 0.00 | 49 | 1020.0 |
| 20260508062505 | 56 | 138 | 1.0 | 3.0 | 0.00 | 0.00 | 0.00 | 47 | 1020.0 |
| 20260508062005 | 55 | 134 | 1.0 | 3.0 | 0.00 | 0.00 | 0.00 | 48 | 1020.2 |
| 20260508061005 | 55 | 191 | 0.0 | 2.0 | 0.00 | 0.00 | 0.00 | 54 | 1020.3 |
| 20260508060504 | 55 | 179 | 0.0 | 2.0 | 0.00 | 0.00 | 0.00 | 57 | 1020.3 |
| 20260508060005 | 56 | 176 | 0.0 | 0.0 | 0.00 | 0.00 | 0.00 | 57 | 1020.4 |
| 20260508055505 | 56 | 176 | 0.0 | 0.0 | 0.00 | 0.00 | 0.00 | 55 | 1020.4 |
| 20260508055005 | 57 | 176 | 0.0 | 0.0 | 0.00 | 0.00 | 0.00 | 56 | 1020.5 |
| 20260508054505 | 58 | 176 | 0.0 | 0.0 | 0.00 | 0.00 | 0.00 | 58 | 1020.5 |
| 20260508054005 | 59 | 176 | 0.0 | 0.0 | 0.00 | 0.00 | 0.00 | 54 | 1020.5 |
| 20260508053504 | 59 | 176 | 0.0 | 1.0 | 0.00 | 0.00 | 0.00 | 49 | 1020.5 |
| 20260508053005 | 60 | 239 | 0.0 | 1.0 | 0.00 | 0.00 | 0.00 | 46 | 1020.4 |
| 20260508052504 | 60 | 121 | 3.0 | 7.0 | 0.00 | 0.00 | 0.00 | 44 | 1020.4 |
| 20260508052005 | 61 | 183 | 3.0 | 6.0 | 0.00 | 0.00 | 0.00 | 44 | 1020.3 |
| 20260508051005 | 62 | 174 | 0.0 | 0.0 | 0.00 | 0.00 | 0.00 | 42 | 1020.4 |
| 20260508050505 | 62 | 185 | 1.0 | 6.0 | 0.00 | 0.00 | 0.00 | 41 | 1020.4 |
| 20260508050005 | 62 | 247 | 2.0 | 8.0 | 0.00 | 0.00 | 0.00 | 42 | 1020.3 |
| 20260508045504 | 62 | 270 | 4.0 | 13.0 | 0.00 | 0.00 | 0.00 | 43 | 1020.3 |
| 20260508045005 | 62 | 234 | 2.0 | 8.0 | 0.00 | 0.00 | 0.00 | 43 | 1020.3 |
| 20260508044505 | 63 | 256 | 5.0 | 9.0 | 0.00 | 0.00 | 0.00 | 45 | 1020.2 |
| 20260508044004 | 63 | 227 | 7.0 | 12.0 | 0.00 | 0.00 | 0.00 | 46 | 1020.3 |
| 20260508043504 | 63 | 233 | 5.0 | 13.0 | 0.00 | 0.00 | 0.00 | 44 | 1020.0 |
| 20260508043004 | 63 | 210 | 7.0 | 17.0 | 0.00 | 0.00 | 0.00 | 45 | 1020.2 |
| 20260508041505 | 63 | 262 | 4.0 | 8.0 | 0.00 | 0.00 | 0.00 | 47 | 1020.0 |
| 20260508041005 | 62 | 226 | 5.0 | 16.0 | 0.00 | 0.00 | 0.00 | 49 | 1020.0 |
| 20260508040505 | 62 | 197 | 5.0 | 9.0 | 0.00 | 0.00 | 0.00 | 50 | 1020.0 |
| 20260508040005 | 62 | 226 | 3.0 | 8.0 | 0.00 | 0.00 | 0.00 | 51 | 1020.1 |
| 20260508035504 | 62 | 263 | 1.0 | 6.0 | 0.00 | 0.00 | 0.00 | 51 | 1020.2 |
| 20260508035005 | 63 | 222 | 0.0 | 2.0 | 0.00 | 0.00 | 0.00 | 50 | 1020.2 |
| 20260508034505 | 63 | 224 | 0.0 | 6.0 | 0.00 | 0.00 | 0.00 | 48 | 1020.2 |
| 20260508034005 | 63 | 209 | 1.0 | 3.0 | 0.00 | 0.00 | 0.00 | 48 | 1020.0 |
| 20260508033005 | 64 | 256 | 0.0 | 2.0 | 0.00 | 0.00 | 0.00 | 48 | 1019.9 |
| 20260508032505 | 64 | 256 | 0.0 | 0.0 | 0.00 | 0.00 | 0.00 | 47 | 1019.9 |
| 20260508031506 | 65 | 242 | 0.0 | 2.0 | 0.00 | 0.00 | 0.00 | 45 | 1019.7 |
| 20260508031004 | 65 | 258 | 0.0 | 2.0 | 0.00 | 0.00 | 0.00 | 43 | 1019.7 |
| 20260508030004 | 66 | 322 | 1.0 | 6.0 | 0.00 | 0.00 | 0.00 | 44 | 1019.6 |
| 20260508025504 | 66 | 272 | 0.0 | 2.0 | 0.00 | 0.00 | 0.00 | 43 | 1019.5 |
| 20260508025004 | 67 | 258 | 1.0 | 7.0 | 0.00 | 0.00 | 0.00 | 42 | 1019.3 |
| 20260508024504 | 67 | 289 | 1.0 | 5.0 | 0.00 | 0.00 | 0.00 | 39 | 1019.3 |
| 20260508024005 | 67 | 289 | 1.0 | 7.0 | 0.00 | 0.00 | 0.00 | 40 | 1019.1 |
| 20260508023005 | 68 | 282 | 2.0 | 6.0 | 0.00 | 0.00 | 0.00 | 38 | 1019.0 |
| 20260508022504 | 68 | 294 | 2.0 | 7.0 | 0.00 | 0.00 | 0.00 | 37 | 1019.0 |
| 20260508022004 | 68 | 239 | 0.0 | 6.0 | 0.00 | 0.00 | 0.00 | 36 | 1018.8 |
| 20260508021504 | 69 | 224 | 1.0 | 7.0 | 0.00 | 0.00 | 0.00 | 35 | 1018.8 |
| 20260508021005 | 70 | 294 | 4.0 | 8.0 | 0.00 | 0.00 | 0.00 | 35 | 1018.7 |
| 20260508020505 | 70 | 278 | 5.0 | 8.0 | 0.00 | 0.00 | 0.00 | 34 | 1018.7 |
| 20260508020005 | 70 | 289 | 6.0 | 10.0 | 0.00 | 0.00 | 0.00 | 32 | 1018.6 |
| 20260508015504 | 71 | 284 | 3.0 | 8.0 | 0.00 | 0.00 | 0.00 | 33 | 1018.7 |
| 20260508015005 | 71 | 292 | 3.0 | 10.0 | 0.00 | 0.00 | 0.00 | 33 | 1018.6 |
| 20260508014004 | 71 | 278 | 3.0 | 9.0 | 0.00 | 0.00 | 0.00 | 31 | 1018.5 |
| 20260508013505 | 72 | 290 | 5.0 | 14.0 | 0.00 | 0.00 | 0.00 | 30 | 1018.5 |
| 20260508013004 | 72 | 269 | 5.0 | 9.0 | 0.00 | 0.00 | 0.00 | 31 | 1018.5 |
| 20260508012504 | 72 | 295 | 5.0 | 13.0 | 0.00 | 0.00 | 0.00 | 30 | 1018.4 |
| 20260508012004 | 72 | 320 | 2.0 | 10.0 | 0.00 | 0.00 | 0.00 | 28 | 1018.4 |
| 20260508011504 | 73 | 293 | 4.0 | 9.0 | 0.00 | 0.00 | 0.00 | 28 | 1018.4 |
| 20260508010505 | 74 | 300 | 5.0 | 14.0 | 0.00 | 0.00 | 0.00 | 25 | 1018.4 |
| 20260508010004 | 74 | 296 | 4.0 | 8.0 | 0.00 | 0.00 | 0.00 | 25 | 1018.4 |
| 20260508005504 | 74 | 300 | 7.0 | 14.0 | 0.00 | 0.00 | 0.00 | 25 | 1018.4 |
| 20260508005004 | 74 | 286 | 6.0 | 9.0 | 0.00 | 0.00 | 0.00 | 25 | 1018.4 |
| 20260508004504 | 74 | 279 | 5.0 | 10.0 | 0.00 | 0.00 | 0.00 | 24 | 1018.4 |
| 20260508004004 | 74 | 303 | 5.0 | 12.0 | 0.00 | 0.00 | 0.00 | 24 | 1018.4 |
| 20260508003505 | 74 | 287 | 6.0 | 12.0 | 0.00 | 0.00 | 0.00 | 24 | 1018.4 |
| 20260508002005 | 74 | 282 | 5.0 | 12.0 | 0.00 | 0.00 | 0.00 | 24 | 1018.4 |
| 20260508001005 | 75 | 277 | 6.0 | 12.0 | 0.00 | 0.00 | 0.00 | 25 | 1018.2 |
| 20260508000504 | 75 | 288 | 6.0 | 20.0 | 0.00 | 0.00 | 0.00 | 24 | 1018.3 |
| 20260508000004 | 75 | 285 | 6.0 | 14.0 | 0.00 | 0.00 | 0.00 | 23 | 1018.3 |
| 20260507235504 | 75 | 281 | 5.0 | 12.0 | 0.00 | 0.00 | 0.00 | 23 | 1018.4 |
| 20260507235004 | 75 | 272 | 7.0 | 16.0 | 0.00 | 0.00 | 0.00 | 24 | 1018.3 |
| 20260507234504 | 75 | 284 | 5.0 | 12.0 | 0.00 | 0.00 | 0.00 | 24 | 1018.4 |
| 20260507234004 | 75 | 287 | 6.0 | 12.0 | 0.00 | 0.00 | 0.00 | 23 | 1018.4 |
| 20260507233504 | 75 | 290 | 6.0 | 12.0 | 0.00 | 0.00 | 0.00 | 24 | 1018.4 |
| 20260507233004 | 75 | 275 | 5.0 | 15.0 | 0.00 | 0.00 | 0.00 | 24 | 1018.3 |
| 20260507232504 | 76 | 277 | 7.0 | 17.0 | 0.00 | 0.00 | 0.00 | 23 | 1018.4 |
| 20260507231504 | 76 | 283 | 7.0 | 13.0 | 0.00 | 0.00 | 0.00 | 22 | 1018.4 |
| 20260507231004 | 76 | 286 | 6.0 | 16.0 | 0.00 | 0.00 | 0.00 | 23 | 1018.4 |
| 20260507230505 | 77 | 277 | 6.0 | 13.0 | 0.00 | 0.00 | 0.00 | 22 | 1018.5 |
| 20260507230005 | 77 | 289 | 7.0 | 14.0 | 0.00 | 0.00 | 0.00 | 22 | 1018.5 |
| 20260507225504 | 77 | 272 | 6.0 | 10.0 | 0.00 | 0.00 | 0.00 | 22 | 1018.4 |